OAN110 LHJT-EPRZ

Flight info

Callsign OAN110
Flight time 0h 51m
Altitude 21000
Route GITAS DCT KALIF DCT LUXAR
Aircraft A400/H-SDE2E3FGHIJ4J5M1RWXY/LB1D1

Departure

Time 2026-05-04 14:53
Airport Földes Airfield (LHJT)

Arrival

Time 2026-05-04 15:45
Airport Rzeszów-Jasionka Airport (EPRZ)
Time Latitude Longitude Altitude Speed Heading
2026-05-04 14:48 46.96698 17.84472 676 ft 0 kts 163°
2026-05-04 14:50 46.96697 17.84472 676 ft 0 kts 163°
2026-05-04 14:50 46.96689 17.84475 676 ft 2 kts 163°
2026-05-04 14:50 46.96672 17.84483 675 ft 2 kts 163°
2026-05-04 14:50 46.96662 17.84489 675 ft 4 kts 152°
2026-05-04 14:51 46.96646 17.84515 678 ft 5 kts 123°
2026-05-04 14:51 46.96639 17.84579 683 ft 6 kts 73°
2026-05-04 14:51 46.96670 17.84605 679 ft 5 kts 359°
2026-05-04 14:51 46.96684 17.84596 681 ft 0 kts 334°
2026-05-04 14:53 46.96686 17.84594 684 ft 1 kts 334°
2026-05-04 14:53 46.96687 17.84594 684 ft 0 kts 334°
2026-05-04 14:53 46.96692 17.84590 684 ft 13 kts 334°
2026-05-04 14:53 46.97118 17.84290 722 ft 119 kts 325°
2026-05-04 14:54 46.97940 17.83441 1323 ft 155 kts 328°
2026-05-04 14:54 46.98997 17.82857 2278 ft 173 kts 340°
2026-05-04 14:54 47.00188 17.82077 2878 ft 206 kts 327°
2026-05-04 14:54 47.01487 17.80809 3380 ft 241 kts 322°
2026-05-04 14:55 47.02927 17.79379 4190 ft 256 kts 329°
2026-05-04 14:55 47.04656 17.78518 5022 ft 273 kts 351°
2026-05-04 14:55 47.06527 17.79026 6114 ft 276 kts 28°
2026-05-04 14:55 47.07827 17.80957 7524 ft 265 kts 64°
2026-05-04 14:56 47.08277 17.83532 8830 ft 260 kts 87°
2026-05-04 14:56 47.08273 17.86177 10083 ft 259 kts 97°
2026-05-04 14:56 47.08043 17.88796 11287 ft 259 kts 102°
2026-05-04 14:56 47.07726 17.91444 12298 ft 272 kts 103°
2026-05-04 14:57 47.07377 17.94317 12834 ft 299 kts 103°
2026-05-04 14:57 47.07045 17.97419 13527 ft 313 kts 100°
2026-05-04 14:57 47.06752 18.00621 14364 ft 319 kts 99°
2026-05-04 14:57 47.06490 18.03839 15164 ft 325 kts 98°
2026-05-04 14:58 47.06237 18.07161 15968 ft 332 kts 98°
2026-05-04 14:58 47.05994 18.10550 16818 ft 337 kts 95°
2026-05-04 14:58 47.06114 18.13999 17703 ft 342 kts 81°
2026-05-04 14:58 47.06909 18.17307 18517 ft 349 kts 61°
2026-05-04 14:59 47.08446 18.20063 19259 ft 353 kts 42°
2026-05-04 14:59 47.10357 18.22333 20105 ft 354 kts 35°
2026-05-04 14:59 47.14559 18.26292 21016 ft 363 kts 30°
2026-05-04 15:00 47.16727 18.28186 21051 ft 363 kts 29°
2026-05-04 15:00 47.18901 18.30098 21057 ft 364 kts 30°
2026-05-04 15:00 47.21056 18.32031 21056 ft 363 kts 31°
2026-05-04 15:01 47.25335 18.35977 21055 ft 363 kts 32°
2026-05-04 15:01 47.27456 18.37965 21050 ft 362 kts 31°
2026-05-04 15:01 47.29586 18.39973 21049 ft 363 kts 31°
2026-05-04 15:01 47.31711 18.41980 21044 ft 362 kts 31°
2026-05-04 15:02 47.33829 18.43983 21045 ft 363 kts 31°
2026-05-04 15:02 47.35953 18.45991 21050 ft 363 kts 32°
2026-05-04 15:02 47.38074 18.47997 21055 ft 362 kts 31°
2026-05-04 15:02 47.40200 18.50009 21051 ft 363 kts 32°
2026-05-04 15:03 47.42320 18.52015 21053 ft 362 kts 32°
2026-05-04 15:03 47.44447 18.54031 21049 ft 362 kts 31°
2026-05-04 15:03 47.46570 18.56044 21054 ft 363 kts 32°
2026-05-04 15:03 47.48691 18.58058 21046 ft 362 kts 32°
2026-05-04 15:04 47.50813 18.60076 21051 ft 363 kts 32°
2026-05-04 15:04 47.52934 18.62094 21051 ft 363 kts 32°
2026-05-04 15:04 47.55059 18.64117 21054 ft 362 kts 32°
2026-05-04 15:04 47.57180 18.66138 21049 ft 363 kts 32°
2026-05-04 15:05 47.59300 18.68159 21051 ft 363 kts 32°
2026-05-04 15:05 47.61421 18.70184 21049 ft 363 kts 31°
2026-05-04 15:05 47.63546 18.72214 21053 ft 363 kts 32°
2026-05-04 15:05 47.65670 18.74247 21048 ft 363 kts 32°
2026-05-04 15:06 47.67792 18.76279 21045 ft 364 kts 32°
2026-05-04 15:06 47.69913 18.78313 21045 ft 363 kts 32°
2026-05-04 15:06 47.72037 18.80353 21046 ft 363 kts 32°
2026-05-04 15:07 47.76254 18.84405 21041 ft 363 kts 32°
2026-05-04 15:07 47.78381 18.86453 21042 ft 365 kts 32°
2026-05-04 15:07 47.80501 18.88496 21047 ft 362 kts 32°
2026-05-04 15:07 47.82607 18.90528 21043 ft 360 kts 32°
2026-05-04 15:08 47.84711 18.92559 21045 ft 360 kts 32°
2026-05-04 15:08 47.86809 18.94587 21048 ft 359 kts 32°
2026-05-04 15:08 47.88907 18.96618 21045 ft 360 kts 32°
2026-05-04 15:08 47.91004 18.98647 21044 ft 360 kts 32°
2026-05-04 15:09 47.93099 19.00678 21042 ft 359 kts 32°
2026-05-04 15:09 47.95197 19.02714 21044 ft 360 kts 32°
2026-05-04 15:09 47.97297 19.04753 21044 ft 360 kts 32°
2026-05-04 15:10 48.01490 19.08832 21042 ft 360 kts 32°
2026-05-04 15:10 48.03590 19.10878 21043 ft 360 kts 32°
2026-05-04 15:10 48.07789 19.14970 21043 ft 360 kts 32°
2026-05-04 15:11 48.09885 19.17018 21043 ft 360 kts 32°
2026-05-04 15:11 48.11981 19.19069 21044 ft 360 kts 32°
2026-05-04 15:11 48.14078 19.21120 21045 ft 360 kts 32°
2026-05-04 15:11 48.16176 19.23176 21043 ft 361 kts 32°
2026-05-04 15:12 48.18278 19.25236 21045 ft 361 kts 32°
2026-05-04 15:12 48.20375 19.27294 21047 ft 361 kts 32°
2026-05-04 15:12 48.22479 19.29363 21044 ft 361 kts 32°
2026-05-04 15:12 48.24578 19.31428 21046 ft 361 kts 32°
2026-05-04 15:13 48.26675 19.33492 21042 ft 361 kts 32°
2026-05-04 15:13 48.28772 19.35559 21048 ft 361 kts 32°
2026-05-04 15:13 48.30871 19.37631 21047 ft 361 kts 32°
2026-05-04 15:13 48.32966 19.39700 21046 ft 361 kts 32°
2026-05-04 15:14 48.35047 19.41758 21044 ft 362 kts 32°
2026-05-04 15:14 48.37148 19.43836 21044 ft 362 kts 32°
2026-05-04 15:14 48.38818 19.45490 21043 ft 363 kts 32°
2026-05-04 15:14 48.38964 19.45635 21044 ft 363 kts 32°
2026-05-04 15:15 48.41072 19.47725 21049 ft 362 kts 32°
2026-05-04 15:15 48.41262 19.47914 21051 ft 362 kts 32°
2026-05-04 15:16 48.42360 19.49004 21052 ft 362 kts 32°
2026-05-04 15:16 48.43545 19.50181 21051 ft 362 kts 32°
2026-05-04 15:16 48.45909 19.52530 21052 ft 363 kts 32°
2026-05-04 15:17 48.46076 19.52696 21049 ft 362 kts 32°
2026-05-04 15:17 48.50286 19.56900 21052 ft 363 kts 33°
2026-05-04 15:17 48.52345 19.59085 21054 ft 363 kts 34°
2026-05-04 15:18 48.54403 19.61319 21052 ft 364 kts 34°
2026-05-04 15:18 48.56454 19.63555 21052 ft 364 kts 34°
2026-05-04 15:18 48.58509 19.65797 21054 ft 364 kts 34°
2026-05-04 15:19 48.62617 19.70283 21059 ft 364 kts 34°
2026-05-04 15:19 48.64666 19.72523 21061 ft 364 kts 34°
2026-05-04 15:19 48.68778 19.77024 21058 ft 364 kts 34°
2026-05-04 15:20 48.70831 19.79274 21059 ft 365 kts 34°
2026-05-04 15:20 48.72887 19.81529 21059 ft 364 kts 35°
2026-05-04 15:20 48.74933 19.83777 21058 ft 364 kts 34°
2026-05-04 15:20 48.76981 19.86028 21060 ft 364 kts 34°
2026-05-04 15:21 48.79029 19.88282 21057 ft 363 kts 34°
2026-05-04 15:21 48.81076 19.90537 21061 ft 364 kts 34°
2026-05-04 15:21 48.85144 19.95026 21056 ft 364 kts 34°
2026-05-04 15:22 48.87190 19.97286 21055 ft 364 kts 34°
2026-05-04 15:22 48.89238 19.99551 21060 ft 364 kts 35°
2026-05-04 15:22 48.90370 20.00805 21057 ft 364 kts 34°
2026-05-04 15:23 48.92419 20.03075 21051 ft 365 kts 34°
2026-05-04 15:23 48.94469 20.05349 21051 ft 364 kts 34°
2026-05-04 15:23 48.96518 20.07624 21047 ft 364 kts 34°
2026-05-04 15:23 48.98569 20.09913 21048 ft 365 kts 34°
2026-05-04 15:24 49.02665 20.14467 21051 ft 365 kts 34°
2026-05-04 15:24 49.06760 20.19033 21046 ft 365 kts 34°
2026-05-04 15:25 49.08812 20.21325 21050 ft 365 kts 34°
2026-05-04 15:25 49.10857 20.23611 21050 ft 364 kts 35°
2026-05-04 15:25 49.12894 20.25892 21047 ft 363 kts 35°
2026-05-04 15:26 49.16968 20.30460 21045 ft 363 kts 35°
2026-05-04 15:26 49.19003 20.32746 21047 ft 363 kts 35°
2026-05-04 15:26 49.23064 20.37314 21027 ft 361 kts 34°
2026-05-04 15:27 49.25088 20.39595 21016 ft 361 kts 35°
2026-05-04 15:27 49.29130 20.44155 21016 ft 361 kts 34°
2026-05-04 15:28 49.33171 20.48724 21008 ft 361 kts 34°
2026-05-04 15:28 49.35197 20.51019 21010 ft 361 kts 34°
2026-05-04 15:28 49.39233 20.55597 21009 ft 361 kts 34°
2026-05-04 15:29 49.41258 20.57898 21012 ft 361 kts 35°
2026-05-04 15:30 49.49319 20.67080 21005 ft 361 kts 35°
2026-05-04 15:30 49.55337 20.73960 20579 ft 360 kts 35°
2026-05-04 15:31 49.59331 20.78538 20038 ft 357 kts 35°
2026-05-04 15:31 49.61329 20.80830 19571 ft 356 kts 35°
2026-05-04 15:32 49.67212 20.87600 18162 ft 349 kts 36°
2026-05-04 15:32 49.71101 20.92086 17187 ft 344 kts 36°
2026-05-04 15:33 49.74923 20.96504 16278 ft 341 kts 36°
2026-05-04 15:34 49.80562 21.03037 14925 ft 337 kts 36°
2026-05-04 15:34 49.82427 21.05203 14468 ft 335 kts 36°
2026-05-04 15:34 49.86146 21.09526 13526 ft 332 kts 36°
2026-05-04 15:35 49.89825 21.13813 12604 ft 329 kts 36°
2026-05-04 15:35 49.91654 21.15955 12149 ft 328 kts 37°
2026-05-04 15:35 49.93308 21.18380 11720 ft 328 kts 49°
2026-05-04 15:36 49.96014 21.24067 10805 ft 326 kts 54°
2026-05-04 15:36 49.96873 21.25976 10513 ft 326 kts 55°
2026-05-04 15:36 49.98169 21.28859 10120 ft 324 kts 55°
2026-05-04 15:37 49.99347 21.31788 9936 ft 317 kts 64°
2026-05-04 15:37 50.00192 21.34934 9491 ft 313 kts 70°
2026-05-04 15:37 50.00915 21.38105 9113 ft 309 kts 72°
2026-05-04 15:37 50.01610 21.41239 8796 ft 304 kts 72°
2026-05-04 15:38 50.02291 21.44296 8576 ft 294 kts 72°
2026-05-04 15:38 50.02955 21.47263 8258 ft 288 kts 72°
2026-05-04 15:38 50.03379 21.50258 7989 ft 280 kts 87°
2026-05-04 15:38 50.03424 21.53261 7628 ft 277 kts 92°
2026-05-04 15:39 50.03375 21.56250 7302 ft 274 kts 93°
2026-05-04 15:39 50.03316 21.59152 7091 ft 263 kts 93°
2026-05-04 15:39 50.03209 21.64794 6595 ft 258 kts 91°
2026-05-04 15:40 50.03418 21.67505 5973 ft 249 kts 71°
2026-05-04 15:40 50.04328 21.69760 4927 ft 250 kts 41°
2026-05-04 15:40 50.05873 21.70983 4106 ft 252 kts 11°
2026-05-04 15:40 50.07620 21.71271 3377 ft 254 kts
2026-05-04 15:41 50.09360 21.71770 2879 ft 255 kts 23°
2026-05-04 15:41 50.10696 21.73411 2689 ft 236 kts 57°
2026-05-04 15:41 50.11245 21.75686 2685 ft 223 kts 85°
2026-05-04 15:41 50.11323 21.78108 2689 ft 224 kts 93°
2026-05-04 15:42 50.11298 21.80514 2677 ft 220 kts 95°
2026-05-04 15:42 50.11265 21.82759 2681 ft 191 kts 95°
2026-05-04 15:42 50.11236 21.84741 2635 ft 175 kts 95°
2026-05-04 15:42 50.11207 21.86583 2468 ft 166 kts 95°
2026-05-04 15:43 50.11181 21.88347 2235 ft 158 kts 95°
2026-05-04 15:43 50.11158 21.90021 2008 ft 152 kts 95°
2026-05-04 15:43 50.11136 21.91629 1801 ft 142 kts 95°
2026-05-04 15:43 50.11116 21.93128 1613 ft 137 kts 94°
2026-05-04 15:44 50.11095 21.94603 1444 ft 136 kts 94°
2026-05-04 15:44 50.11075 21.96070 1294 ft 135 kts 95°
2026-05-04 15:44 50.11056 21.97517 1082 ft 136 kts 95°
2026-05-04 15:44 50.11037 21.99002 901 ft 134 kts 94°
2026-05-04 15:45 50.11020 22.00459 726 ft 135 kts 94°
2026-05-04 15:45 50.10974 22.01675 712 ft 82 kts 89°
2026-05-04 15:45 50.10998 22.02269 703 ft 29 kts 98°
2026-05-04 15:45 50.10997 22.02391 705 ft 2 kts 86°
2026-05-04 15:46 50.10999 22.02439 696 ft 6 kts 86°
2026-05-04 15:46 50.10995 22.02510 698 ft 7 kts 102°
2026-05-04 15:46 50.10989 22.02597 703 ft 9 kts 91°
2026-05-04 15:46 50.10996 22.02708 705 ft 11 kts 58°
2026-05-04 15:47 50.11081 22.02740 697 ft 16 kts
2026-05-04 15:47 50.11148 22.02673 701 ft 11 kts 274°
2026-05-04 15:47 50.11152 22.02556 701 ft 11 kts 272°
2026-05-04 15:47 50.11155 22.02428 701 ft 12 kts 271°
2026-05-04 15:48 50.11156 22.02293 698 ft 13 kts 271°
2026-05-04 15:48 50.11157 22.02151 701 ft 13 kts 270°
2026-05-04 15:48 50.11159 22.01893 705 ft 11 kts 270°
2026-05-04 15:49 50.11159 22.01778 703 ft 10 kts 270°
2026-05-04 15:49 50.11162 22.01671 704 ft 10 kts 272°
2026-05-04 15:49 50.11165 22.01566 715 ft 10 kts 272°
2026-05-04 15:49 50.11165 22.01465 716 ft 9 kts 270°
2026-05-04 15:50 50.11166 22.01368 717 ft 9 kts 270°
2026-05-04 15:50 50.11166 22.01263 716 ft 10 kts 270°
2026-05-04 15:50 50.11167 22.01144 717 ft 12 kts 271°
2026-05-04 15:50 50.11170 22.01014 715 ft 12 kts 273°
2026-05-04 15:51 50.11172 22.00881 717 ft 11 kts 270°
2026-05-04 15:51 50.11198 22.00820 717 ft 7 kts 340°
2026-05-04 15:51 50.11252 22.00814 714 ft 6 kts
2026-05-04 15:51 50.11270 22.00814 717 ft 1 kts 358°